This demonstration page uses our WeatherBlox Daily Observations layout. Learn more.

Left ArrowRight Arrow

Hourly Observations for December 19, 2019

Temp ( °F °C ) Dew Point ( °F °C ) Humidity (%) Winds ( mph kmh ) Pressure ( in mb ) Visibility ( mi km ) Precip ( " mm )
12:56 am 00:56 Clear 27 -3 23 -5 86 86 Calm 30.16 1021 10 16 0.00 0.00
1:56 am 01:56 Clear 25 -4 21 -6 86 86 ESE 3 6 30.16 1021 10 16 0.00 0.00
2:56 am 02:56 Clear 25 -4 21 -6 86 86 SE 3 6 30.16 1021 10 16 0.00 0.00
3:56 am 03:56 Clear 25 -4 21 -6 86 86 SE 3 6 30.15 1021 10 16 0.00 0.00
4:56 am 04:56 Clear 23 -5 21 -6 93 93 E 3 6 30.16 1021 10 16 0.00 0.00
5:56 am 05:56 Clear 25 -4 21 -6 86 86 SSE 3 6 30.16 1021 10 16 0.00 0.00
6:56 am 06:56 Clear 23 -5 21 -6 93 93 Calm 30.16 1022 10 16 0.00 0.00
7:56 am 07:56 Sunny 23 -5 19 -7 86 86 Calm 30.17 1022 10 16 0.00 0.00
8:56 am 08:56 Sunny 27 -3 21 -6 80 80 ESE 3 6 30.19 1022 10 16 0.00 0.00
9:56 am 09:56 Sunny 32 0 23 -5 69 69 ESE 5 7 30.19 1022 10 16 0.00 0.00
10:56 am 10:56 Sunny 37 3 25 -4 60 60 SE 3 6 30.18 1022 10 16 0.00 0.00
11:56 am 11:56 Sunny 39 4 25 -4 56 56 SE 7 11 30.16 1021 10 16 0.00 0.00
1:56 pm 13:56 Sunny 43 6 25 -4 49 49 S 10 17 30.12 1020 10 16 0.00 0.00
2:56 pm 14:56 Sunny 45 7 25 -4 46 46 SE 14 22 30.11 1020 10 16 0.00 0.00
3:56 pm 15:56 Mostly Cloudy 45 7 27 -3 49 49 SE 13 20 30.11 1020 10 16 0.00 0.00
4:56 pm 16:56 Mostly Cloudy 43 6 27 -3 53 53 SE 12 19 30.11 1020 10 16 0.00 0.00
5:56 pm 17:56 Clear N/A N/A N/A SE 10 17 N/A 10 16 0.00 0.00
6:56 pm 18:56 Cloudy 39 4 27 -3 61 61 ESE 12 19 30.15 1021 10 16 0.00 0.00
7:56 pm 19:56 Cloudy 37 3 27 -3 65 65 E 8 13 30.16 1021 10 16 0.00 0.00
8:56 pm 20:56 Cloudy 36 2 25 -4 65 65 E 6 9 30.17 1022 10 16 0.00 0.00
9:56 pm 21:56 Clear N/A N/A N/A NE 5 7 N/A 10 16 0.00 0.00
10:56 pm 22:56 Cloudy 36 2 25 -4 65 65 SSE 3 6 30.18 1022 10 16 0.00 0.00
11:56 pm 23:56 Mostly Clear 36 2 23 -5 60 60 ESE 6 9 30.19 1022 10 16 0.00 0.00

Powered by AerisWeather